Other Surface Observations
Issued by NWS

Home | Current Version | Previous Version | Text Only | Print | Product List | Glossary On
Versions: 1 2 3 4 5 6 7 8 9 10 11 12 13 14 15 16 17 18 19 20 21 22 23 24 25 26 27 28 29 30 31 32 33 34 35 36 37 38 39 40 41 42 43 44 45 46 47 48 49 50
000
SXUS52 KTAE 060718
OSOTAE
OSOTAE
North Florida/South Alabama/Southwest Georgia Weather Roundup
National Weather Service Tallahassee Florida
300 AM EDT MON JUL 06 2015

Note: "fair" indicates few or no clouds below 12,000 feet with no
significant weather and/or obstructions to visibility.

!FLZ017-115-028-034-025-060800
...North Florida...

CITY           SKY/WX    TMP DP  RH WIND       PRES   REMARKS
TALLAHASSEE    CLEAR     72  69  90 CALM      30.13F
APALACHICOLA   CLEAR     75  70  84 CALM      30.13F
PERRY          MOCLDY    70  70 100 CALM      30.15S
CROSS CITY       N/A     70  69  97 CALM      30.13F
JACKSONVILLE   FOG       69  69 100 CALM      30.14S VSB 1/4
$$

!FLZ112-006-005-002-011-060800
...Florida Panhandle...

CITY           SKY/WX    TMP DP  RH WIND       PRES   REMARKS
MARIANNA       MOCLDY    72  72 100 S3        30.11F
BONIFAY        FAIR      71  70  96 CALM      30.11F
PANAMA CITY NW FAIR      73  71  93 CALM      30.10F
TYNDALL AFB    NOT AVBL
TYND DRONE APT FAIR      70  70  98 SE3       30.11F
DE FUNIAK SPR  FAIR      68  68 100 CALM      30.11F
EGLIN AFB      MOCLDY    72  68  89 W2        30.11S
DESTIN         PTCLDY    74  68  81 SW3       30.11S
HURLBURT       MOCLDY    74  66  77 NW3       30.10R
CRESTVIEW      CLEAR     67  66  97 CALM      30.12F
PENSACOLA      MOCLDY    71  68  90 CALM      30.12R
$$

!ALZ063-066-060800
...South Alabama...

CITY           SKY/WX    TMP DP  RH WIND       PRES   REMARKS
DOTHAN         PTCLDY    69  68  96 S7          N/A
OZARK CAIRNS   NOT AVBL
FT RUCKER HELI PTCLDY    69  66  90 S5        30.10F
RUCKER HELI 3  FAIR      68  66  94 S3        30.12F
RUCKER HELI 2  FAIR      67  32  27 S5        30.09F
FLORALA APT    CLEAR     67  65  93 CALM      30.12S
ANDALUSIA      CLEAR     70  66  87 CALM      30.11S
TROY           CLEAR     69  67  93 CALM      30.10F
EUFALA         CLOUDY    71  69  93 CALM      30.10F
MOBILE         MOCLDY    69  68  96 SE3       30.12F
$$

!GAZ120>161-060800
...Southwest and South Central Georgia...

CITY           SKY/WX    TMP DP  RH WIND       PRES   REMARKS
THOMASVILLE    FAIR      70  70 100 CALM      30.14F
BAINBRIDGE     PTCLDY    73  72  94 CALM      30.13F
MOODY AFB      PTCLDY    71  69  94 SW6       30.12F
VALDOSTA       CLEAR     70  70 100 CALM      30.14F
MOULTRIE       CLEAR     70  70 100 CALM      30.14F
BLAKELY        FOG       72  72 100 S3        30.12F VSB 1/4
ALBANY         PTCLDY    71  69  93 CALM      30.14F
TIFTON         CLOUDY    71  70  97 W5        30.13F
FITZGERALD     PTSUNNY   72  71  96 SW3       30.15F
CORDELE        CLOUDY    74  72  93 SW3       30.13F
AMERICUS       PTSUNNY   70  70 100 SW5       30.13F
HOMERVILLE     MOCLDY    72  72 100 W3        30.14R
$$

!GMZ750-755-770-775-060800
...Coastal and Buoy Obs...

STATION/POSITION TIME  TEMP    WIND        PRES    VSBY  WAVE
                       AIR SEA DIR/SP/G                  HT/PER
                 (UTC) (F)     (DEG/KT/KT) (MB)    (MI)  (FT/S)
KEATON BEACH     0700   81     230/  6/  9 1020.4F
CEDAR KEY        0700   82     240/  5/  7 1020.9F
C TOWER          0700   80     180/  6/  7 1020.3F
APALACHICOLA BUO 0650   83 85  150/  2/  4 1020.8F         2/ 5
PANAMA CITY BUOY 0650   81 84  150/ 12/ 16 1020.0F         1/ 6
MOBILE BUOY      0650   81 84  140/ 10/ 14 1019.2F         2/ 5
ORANGE BCH AL BU 0650   82 82  180/ 12/ 14 1018.5R         2/ 5
$$



USA.gov is the U.S. government's official web portal to all federal, state and local government web resources and services.